ABSECON CHANNEL AT ATLANTIC CITY NJ US USGS current weather conditions

sailwx.info

Wind from 300 at 7 knots gusting 11

Air temperature 6.5° C
Dewpoint 4.2° C

Last reported at 2019-Nov-19 14:48 UTC.
Time now 2019-Nov-19 15:34 UTC

Location: N 39°23' W 074°25'.
View on Google Maps.

See reports from other nearby stations

  
Tides and Currents Weather Stations Pressure Air Temp Water Temp Dewpoint Dewpoint Depression Visibility Wind Speed Wind Dir Waves Ship Positions
date/time (UTC)wind fromknots sea level pressurealtimeterstation pressurevisibilityair tempwater tempwave heightnotes
2019-Nov-19 14:48 300 7 gusting 11 6.5
2019-Nov-19 14:42 297 6 gusting 11 6.4
2019-Nov-19 14:36 295 7 gusting 10 6.4
2019-Nov-19 14:30 293 6 gusting 9 6.4
2019-Nov-19 14:24 293 6 gusting 9 6.4
2019-Nov-19 14:18 293 6 gusting 10 6.4
2019-Nov-19 14:12 287 6 gusting 9 6.4
2019-Nov-19 14:06 297 5 gusting 8 6.4
2019-Nov-19 14:00 295 6 gusting 10 6.3
2019-Nov-19 13:54 292 7 gusting 12 6.2
2019-Nov-19 13:48 301 7 gusting 12 6.1
2019-Nov-19 13:42 298 5 gusting 8 6.2
2019-Nov-19 13:36 288 6 gusting 10 6.2
2019-Nov-19 13:30 293 6 gusting 11 6.1
2019-Nov-19 13:24 298 6 gusting 10 6.1
2019-Nov-19 13:18 280 7 gusting 11 6.1
2019-Nov-19 13:12 277 7 gusting 11 6.1
2019-Nov-19 13:06 297 8 gusting 13 6.0
2019-Nov-19 13:00 293 9 gusting 14 6.1
2019-Nov-19 12:54 291 9 gusting 14 6.2
2019-Nov-19 12:48 284 7 gusting 11 6.3
2019-Nov-19 12:42 275 6 gusting 11 6.3
2019-Nov-19 12:36 290 6 gusting 11 6.3
2019-Nov-19 12:30 284 7 gusting 14 6.4
2019-Nov-19 12:24 275 6 gusting 10 6.4
2019-Nov-19 12:18 275 6 gusting 8 6.4
2019-Nov-19 12:12 268 6 gusting 9 6.4
2019-Nov-19 12:06 268 5 gusting 8 6.3
2019-Nov-19 12:00 267 4 gusting 9 6.3
2019-Nov-19 11:54 264 4 gusting 6 6.3
2019-Nov-19 11:48 266 4 gusting 5 6.3
2019-Nov-19 11:42 268 4 gusting 5 6.3
2019-Nov-19 11:36 270 3 gusting 4 6.4
2019-Nov-19 11:30 263 3 gusting 5 6.5
2019-Nov-19 11:24 247 3 gusting 5 6.5
2019-Nov-19 11:18 261 4 gusting 5 6.5
2019-Nov-19 11:12 264 4 gusting 5 6.5
2019-Nov-19 11:06 273 3 gusting 4 6.4
2019-Nov-19 11:00 266 3 gusting 4 6.4
2019-Nov-19 10:54 262 4 gusting 5 6.4
2019-Nov-19 10:48 278 3 gusting 4 6.4
2019-Nov-19 10:42 267 2 gusting 3 6.4
2019-Nov-19 10:36 257 3 gusting 4 6.4
2019-Nov-19 10:30 263 2 gusting 3 6.4
2019-Nov-19 10:24 256 3 gusting 4 6.3
2019-Nov-19 10:18 264 3 gusting 5 6.3
2019-Nov-19 10:12 266 4 gusting 5 6.3
2019-Nov-19 10:06 262 4 gusting 4 6.3
2019-Nov-19 10:00 260 3 gusting 4 6.4
2019-Nov-19 09:54 274 5 gusting 8 6.4
2019-Nov-19 09:48 280 6 gusting 8 6.3
2019-Nov-19 09:42 270 4 gusting 6 6.3
2019-Nov-19 09:36 263 4 gusting 6 6.2
2019-Nov-19 09:30 266 4 gusting 6 6.2
2019-Nov-19 09:24 264 4 gusting 6 6.2
2019-Nov-19 09:18 263 5 gusting 7 6.2
2019-Nov-19 09:12 259 5 gusting 7 6.2
2019-Nov-19 09:06 259 5 gusting 6 6.3
2019-Nov-19 09:00 263 6 gusting 7 6.3
2019-Nov-19 08:54 268 6 gusting 9 6.3
2019-Nov-19 08:48 265 5 gusting 8 6.3
2019-Nov-19 08:42 272 6 gusting 9 6.1
2019-Nov-19 08:36 268 5 gusting 9 6.1
2019-Nov-19 08:30 269 4 gusting 6 6.1
2019-Nov-19 08:24 269 3 gusting 6 6.1
2019-Nov-19 08:18 258 3 gusting 4 6.1
2019-Nov-19 08:12 256 4 gusting 6 6.1
2019-Nov-19 08:06 258 5 gusting 9 6.0
2019-Nov-19 08:00 260 4 gusting 7 6.0
2019-Nov-19 07:54 260 4 gusting 6 6.0
2019-Nov-19 07:48 263 4 gusting 7 6.0
2019-Nov-19 07:42 260 4 gusting 6 6.0
2019-Nov-19 07:36 263 4 gusting 7 6.0
2019-Nov-19 07:30 270 5 gusting 7 6.0
2019-Nov-19 07:24 275 5 gusting 7 5.9
2019-Nov-19 07:18 262 3 gusting 5 5.8
2019-Nov-19 07:12 260 4 gusting 6 5.8
2019-Nov-19 07:06 267 3 gusting 4 5.9
2019-Nov-19 07:00 269 5 gusting 7 5.9
2019-Nov-19 06:54 268 5 gusting 8 5.9
2019-Nov-19 06:48 269 5 gusting 7 5.9
2019-Nov-19 06:42 277 5 gusting 8 5.8
2019-Nov-19 06:30 268 5 gusting 8 5.7
2019-Nov-19 06:24 275 6 gusting 9 5.7
2019-Nov-19 06:18 266 6 gusting 8 5.7
2019-Nov-19 06:12 271 7 gusting 9 5.6
2019-Nov-19 06:06 270 6 gusting 10 5.6
2019-Nov-19 06:00 268 6 gusting 8 5.5
2019-Nov-19 05:54 266 6 gusting 8 5.5
2019-Nov-19 05:48 264 5 gusting 6 5.6
2019-Nov-19 05:42 287 3 gusting 6 5.6
2019-Nov-19 05:36 279 3 gusting 4 5.6
2019-Nov-19 05:30 275 3 gusting 6 5.6
2019-Nov-19 05:24 274 3 gusting 5 5.6
2019-Nov-19 05:18 281 2 gusting 5 5.6
2019-Nov-19 05:12 283 3 gusting 6 5.6
2019-Nov-19 05:06 279 3 gusting 4 5.6
2019-Nov-19 05:00 327 2 gusting 4 5.6
2019-Nov-19 04:54 333 1 gusting 4 5.6
2019-Nov-19 04:48 335 1 gusting 4 5.6
2019-Nov-19 04:42 322 1 gusting 3 5.7
2019-Nov-19 04:36 335 3 gusting 5 5.6
2019-Nov-19 04:30 305 3 gusting 6 5.6
2019-Nov-19 04:24 274 4 gusting 5 5.6
2019-Nov-19 04:18 263 4 gusting 6 5.7
2019-Nov-19 04:12 269 4 gusting 6 5.7
2019-Nov-19 04:06 263 5 gusting 7 5.7
2019-Nov-19 04:00 265 5 gusting 7 5.7
2019-Nov-19 03:54 269 5 gusting 7 5.7
2019-Nov-19 03:48 281 4 gusting 7 5.7
2019-Nov-19 03:42 272 5 gusting 7 5.7
2019-Nov-19 03:36 278 5 gusting 7 5.6
2019-Nov-19 03:30 273 3 gusting 5 5.6
2019-Nov-19 03:24 269 4 gusting 6 5.6
2019-Nov-19 03:18 262 4 gusting 5 5.6
2019-Nov-19 03:12 266 4 gusting 5 5.6
2019-Nov-19 03:06 260 4 gusting 5 5.6
2019-Nov-19 03:00 283 3 gusting 5 5.5
2019-Nov-19 02:54 281 4 gusting 6 5.4
2019-Nov-19 02:48 292 4 gusting 7 5.4
2019-Nov-19 02:42 297 4 gusting 7 5.4
2019-Nov-19 02:36 289 3 gusting 5 5.5
2019-Nov-19 02:30 285 4 gusting 6 5.5
2019-Nov-19 02:24 282 4 gusting 6 5.5
2019-Nov-19 02:18 304 4 gusting 7 5.4
2019-Nov-19 02:12 302 2 gusting 6 5.4
2019-Nov-19 02:06 326 3 gusting 6 5.4
2019-Nov-19 02:00 333 3 gusting 6 5.4
2019-Nov-19 01:54 326 2 gusting 8 5.4
2019-Nov-19 01:48 293 3 gusting 8 5.4
2019-Nov-19 01:42 313 2 gusting 5 5.4
2019-Nov-19 01:36 305 3 gusting 7 5.3
2019-Nov-19 01:30 285 5 gusting 9 5.3
2019-Nov-19 01:24 291 5 gusting 10 5.4
2019-Nov-19 01:18 293 4 gusting 8 5.4
2019-Nov-19 01:12 296 5 gusting 10 5.4
2019-Nov-19 01:06 292 5 gusting 9 5.4
2019-Nov-19 01:00 292 5 gusting 8 5.5
2019-Nov-19 00:54 307 3 gusting 6 5.5
2019-Nov-19 00:48 316 4 gusting 6 5.4
2019-Nov-19 00:42 321 4 gusting 8 5.4
2019-Nov-19 00:36 327 5 gusting 8 5.4
2019-Nov-19 00:30 330 5 gusting 7 5.4
2019-Nov-19 00:24 333 4 gusting 8 5.4
2019-Nov-19 00:18 328 4 gusting 7 5.4
2019-Nov-19 00:12 325 3 gusting 7 5.4
2019-Nov-19 00:06 318 3 gusting 6 5.5
2019-Nov-19 00:00 314 3 gusting 6 5.5
2019-Nov-18 23:54 318 2 gusting 6 5.5
2019-Nov-18 23:48 329 3 gusting 6 5.5
2019-Nov-18 23:42 301 3 gusting 6 5.5
2019-Nov-18 23:36 319 3 gusting 6 5.5
2019-Nov-18 23:30 315 3 gusting 6 5.5
2019-Nov-18 23:24 314 3 gusting 6 5.5
2019-Nov-18 23:18 339 3 gusting 6 5.5
2019-Nov-18 23:12 353 2 gusting 5 5.4
2019-Nov-18 23:06 332 5 gusting 8 5.4
2019-Nov-18 23:00 335 4 gusting 7 5.5
2019-Nov-18 22:54 333 5 gusting 8 5.5
2019-Nov-18 22:48 329 5 gusting 8 5.5
2019-Nov-18 22:42 327 4 gusting 7 5.5
2019-Nov-18 22:36 327 4 gusting 8 5.6
2019-Nov-18 22:30 323 4 gusting 9 5.6
2019-Nov-18 22:24 326 4 gusting 6 5.6
2019-Nov-18 22:18 327 5 gusting 9 5.6
2019-Nov-18 22:12 330 5 gusting 8 5.6
2019-Nov-18 22:06 331 5 gusting 10 5.6
2019-Nov-18 22:00 333 4 gusting 7 5.5
2019-Nov-18 21:54 347 3 gusting 8 5.5
2019-Nov-18 21:48 335 4 gusting 8 5.5
2019-Nov-18 21:42 345 4 gusting 8 5.5
2019-Nov-18 21:36 332 4 gusting 10 5.5
2019-Nov-18 21:30 005 2 gusting 8 5.6
2019-Nov-18 21:24 039 2 gusting 8 5.6
2019-Nov-18 21:18 002 3 gusting 7 5.6
2019-Nov-18 21:12 330 3 gusting 8 5.7
2019-Nov-18 21:06 341 4 gusting 9 5.6
2019-Nov-18 21:00 337 4 gusting 14 5.6
2019-Nov-18 20:54 337 5 gusting 15 5.7
2019-Nov-18 20:48 342 4 gusting 16 5.6
2019-Nov-18 20:42 342 4 gusting 8 5.7
2019-Nov-18 20:36 349 2 gusting 8 5.8
2019-Nov-18 20:30 348 3 gusting 9 5.8
2019-Nov-18 20:24 335 3 gusting 9 5.7
2019-Nov-18 20:18 337 4 gusting 11 5.8
2019-Nov-18 20:12 335 5 gusting 12 5.7
2019-Nov-18 20:06 330 8 gusting 14 5.6
2019-Nov-18 20:00 328 8 gusting 14 5.7
2019-Nov-18 19:54 328 7 gusting 13 5.7
2019-Nov-18 19:48 331 7 gusting 12 5.7
2019-Nov-18 19:42 331 7 gusting 13 5.7
2019-Nov-18 19:36 330 7 gusting 13 5.7
2019-Nov-18 19:30 328 9 gusting 16 5.6
2019-Nov-18 19:24 329 9 gusting 14 5.5
2019-Nov-18 19:18 330 10 gusting 15 5.4
2019-Nov-18 19:12 330 9 gusting 16 5.4
2019-Nov-18 19:06 329 9 gusting 16 5.3
2019-Nov-18 19:00 329 10 gusting 16 5.3
2019-Nov-18 18:54 328 10 gusting 18 5.2
2019-Nov-18 18:48 330 10 gusting 15 5.2
2019-Nov-18 18:42 330 10 gusting 16 5.2
2019-Nov-18 18:36 330 9 gusting 17 5.2
2019-Nov-18 18:30 329 9 gusting 16 5.1
2019-Nov-18 18:24 331 10 gusting 17 5.0
2019-Nov-18 18:18 330 11 gusting 18 5.0
2019-Nov-18 18:12 332 10 gusting 18 5.1
2019-Nov-18 18:06 330 10 gusting 16 5.0
2019-Nov-18 18:00 331 9 gusting 16 5.0
2019-Nov-18 17:54 327 11 gusting 21 5.1
2019-Nov-18 17:48 328 10 gusting 16 5.0
2019-Nov-18 17:42 331 10 gusting 16 5.0
2019-Nov-18 17:36 327 10 gusting 18 5.0
2019-Nov-18 17:30 329 9 gusting 36 4.9
2019-Nov-18 17:24 334 11 gusting 37 4.9
2019-Nov-18 17:18 334 8 gusting 16 4.9
2019-Nov-18 17:12 335 7 gusting 13 4.9
2019-Nov-18 17:06 330 9 gusting 16 4.8
2019-Nov-18 17:00 328 10 gusting 18 4.9
2019-Nov-18 16:54 332 8 gusting 17 4.9
2019-Nov-18 16:48 340 6 gusting 15 4.9
2019-Nov-18 16:42 344 5 gusting 15 4.9
2019-Nov-18 16:36 334 8 gusting 16 4.8
2019-Nov-18 16:30 336 7 gusting 17 4.9
2019-Nov-18 16:24 346 7 gusting 16 4.8
2019-Nov-18 16:18 348 6 gusting 14 4.9
2019-Nov-18 16:12 345 6 gusting 17 4.8
2019-Nov-18 16:06 345 6 gusting 15 4.9
2019-Nov-18 16:00 337 6 gusting 15 4.8
2019-Nov-18 15:54 336 6 gusting 17 4.8
2019-Nov-18 15:48 334 7 gusting 14 4.8
2019-Nov-18 15:42 337 8 gusting 19 4.8
2019-Nov-18 15:36 333 9 gusting 20 4.8
2019-Nov-18 15:30 335 7 gusting 14 4.7
2019-Nov-18 15:24 351 7 gusting 19 4.7
2019-Nov-18 15:18 349 7 gusting 16 4.8
2019-Nov-18 15:06 009 4 gusting 14 4.7
2019-Nov-18 15:00 344 4 gusting 15 4.6
2019-Nov-18 14:54 346 5 gusting 15 4.7
2019-Nov-18 14:48 347 6 gusting 16 4.6
2019-Nov-18 14:42 343 8 gusting 16 4.7
2019-Nov-18 14:36 342 6 gusting 14 4.7
2019-Nov-18 14:30 337 7 gusting 16 4.7
2019-Nov-18 14:24 343 6 gusting 15 4.7
2019-Nov-18 14:18 337 7 gusting 15 4.8
2019-Nov-18 14:12 342 7 gusting 17 4.8
2019-Nov-18 14:06 338 8 gusting 17 4.8
2019-Nov-18 14:00 345 7 gusting 16 4.8
2019-Nov-18 13:48 339 7 gusting 15 4.8
2019-Nov-18 13:42 340 7 gusting 16 4.8
2019-Nov-18 13:36 340 8 gusting 18 4.7
2019-Nov-18 13:30 340 8 gusting 15 4.8
2019-Nov-18 13:24 296 6 gusting 15 4.8
2019-Nov-18 13:18 352 3 gusting 14 4.8
2019-Nov-18 13:12 200 3 gusting 12 4.8
2019-Nov-18 13:06 040 5 gusting 12 4.8
2019-Nov-18 13:00 033 6 gusting 15 4.7
2019-Nov-18 12:54 034 7 gusting 20 4.7
2019-Nov-18 12:48 038 7 gusting 18 4.7
2019-Nov-18 12:42 045 8 gusting 19 4.7
2019-Nov-18 12:36 047 7 gusting 18 4.7
2019-Nov-18 12:30 039 7 gusting 15 4.6
2019-Nov-18 12:24 054 6 gusting 17 4.5
2019-Nov-18 12:18 037 8 gusting 18 4.5
2019-Nov-18 12:12 038 8 gusting 17 4.5
2019-Nov-18 12:06 060 7 gusting 16 4.5
2019-Nov-18 12:00 073 5 gusting 15 4.5
2019-Nov-18 11:54 013 4 gusting 15 4.4
2019-Nov-18 11:48 022 4 gusting 14 4.4
2019-Nov-18 11:42 016 4 gusting 13 4.4
2019-Nov-18 11:36 333 4 gusting 17 4.4
2019-Nov-18 11:30 024 4 gusting 13 4.5
2019-Nov-18 11:24 023 4 gusting 13 4.5
2019-Nov-18 11:18 008 4 gusting 13 4.5
2019-Nov-18 11:12 057 5 gusting 15 4.5
2019-Nov-18 11:06 032 6 gusting 17 4.5
2019-Nov-18 11:00 011 5 gusting 14 4.5
2019-Nov-18 10:54 023 4 gusting 14 4.5
2019-Nov-18 10:48 337 3 gusting 11 4.6
2019-Nov-18 10:42 345 4 gusting 14 4.6
2019-Nov-18 10:36 033 4 gusting 15 4.6
2019-Nov-18 10:30 358 4 gusting 12 4.7
2019-Nov-18 10:24 003 4 gusting 14 4.7
2019-Nov-18 10:18 006 4 gusting 14 4.7
2019-Nov-18 10:12 298 4 gusting 14 4.7
2019-Nov-18 10:06 025 4 gusting 14 4.7
2019-Nov-18 10:00 014 4 gusting 14 4.6
2019-Nov-18 09:54 011 4 gusting 19 4.6
2019-Nov-18 09:48 003 4 gusting 16 4.7
2019-Nov-18 09:42 031 4 gusting 17 4.7
2019-Nov-18 09:36 008 4 gusting 17 4.7
2019-Nov-18 09:30 352 4 gusting 14 4.7
2019-Nov-18 09:24 033 4 gusting 13 4.9
2019-Nov-18 09:18 352 3 gusting 13 5.0
2019-Nov-18 09:12 339 4 gusting 17 5.0
2019-Nov-18 09:06 357 4 gusting 14 5.1
2019-Nov-18 09:00 040 4 gusting 14 5.0
2019-Nov-18 08:54 023 4 gusting 13 5.0
2019-Nov-18 08:48 040 5 gusting 17 5.0
2019-Nov-18 08:42 037 5 gusting 17 5.0
2019-Nov-18 08:36 048 6 gusting 17 5.1
2019-Nov-18 08:30 032 5 gusting 19 5.0
2019-Nov-18 08:24 036 6 gusting 16 5.0
2019-Nov-18 08:18 028 5 gusting 16 5.0
2019-Nov-18 08:12 006 5 gusting 14 5.0
2019-Nov-18 08:06 035 6 gusting 19 5.0
2019-Nov-18 08:00 063 6 gusting 15 5.1
2019-Nov-18 07:54 029 5 gusting 16 5.1
2019-Nov-18 07:48 346 4 gusting 15 5.1
2019-Nov-18 07:42 045 4 gusting 17 5.1
2019-Nov-18 07:36 071 4 gusting 14 5.1
2019-Nov-18 07:30 350 4 gusting 13 5.2
2019-Nov-18 07:24 344 4 gusting 15 5.1
2019-Nov-18 07:18 347 4 gusting 15 5.2
2019-Nov-18 07:12 356 4 gusting 13 5.2
2019-Nov-18 07:06 357 4 gusting 15 5.3
2019-Nov-18 07:00 063 4 gusting 17 5.2
2019-Nov-18 06:54 060 4 gusting 15 5.3
2019-Nov-18 06:48 006 4 gusting 14 5.2
2019-Nov-18 06:42 354 4 gusting 13 5.2
2019-Nov-18 06:36 022 4 gusting 16 5.2
2019-Nov-18 06:30 043 6 gusting 16 5.3
2019-Nov-18 06:24 358 5 gusting 16 5.4
2019-Nov-18 06:18 006 6 gusting 18 5.4
2019-Nov-18 06:12 042 6 gusting 19 5.6
2019-Nov-18 06:06 050 8 gusting 18 5.8
2019-Nov-18 06:00 039 10 gusting 21 6.0
2019-Nov-18 05:54 038 10 gusting 21 6.0
2019-Nov-18 05:48 041 11 gusting 23 6.1
2019-Nov-18 05:42 041 11 gusting 21 6.0
2019-Nov-18 05:36 044 10 gusting 22 6.0
2019-Nov-18 05:30 042 11 gusting 27 6.0
2019-Nov-18 05:24 042 9 gusting 22 6.0
2019-Nov-18 05:18 043 10 gusting 31 6.0
2019-Nov-18 05:12 046 9 gusting 23 5.9
2019-Nov-18 05:06 045 9 gusting 22 5.9
2019-Nov-18 05:00 041 8 gusting 21 5.8
2019-Nov-18 04:54 043 11 gusting 24 5.9
2019-Nov-18 04:48 042 9 gusting 19 5.9
2019-Nov-18 04:42 044 8 gusting 20 5.8
2019-Nov-18 04:36 043 9 gusting 20 5.8
2019-Nov-18 04:30 038 9 gusting 20 5.9
2019-Nov-18 04:24 043 9 gusting 22 5.9
2019-Nov-18 04:18 045 9 gusting 20 5.9
2019-Nov-18 04:12 041 9 gusting 21 5.8
2019-Nov-18 04:06 043 9 gusting 23 5.8
2019-Nov-18 04:00 040 12 gusting 23 5.8
2019-Nov-18 03:54 039 10 gusting 21 5.9
2019-Nov-18 03:48 039 11 gusting 30 5.9
2019-Nov-18 03:42 039 11 gusting 24 5.9
2019-Nov-18 03:36 044 10 gusting 21 5.9
2019-Nov-18 03:30 042 10 gusting 23 5.9
2019-Nov-18 03:24 043 9 gusting 22 5.9
2019-Nov-18 03:18 043 10 gusting 23 5.8
2019-Nov-18 03:12 043 10 gusting 21 5.9
2019-Nov-18 03:06 043 9 gusting 19 5.8
2019-Nov-18 03:00 041 9 gusting 25 5.8
2019-Nov-18 02:54 040 10 gusting 22 5.8
2019-Nov-18 02:48 040 11 gusting 27 5.7
2019-Nov-18 02:42 033 10 gusting 24 5.6
2019-Nov-18 02:36 044 10 gusting 21 5.7
2019-Nov-18 02:30 042 9 gusting 23 5.7
2019-Nov-18 02:24 042 9 gusting 20 5.7
2019-Nov-18 02:18 042 9 gusting 26 5.6
2019-Nov-18 02:12 047 9 gusting 23 5.6
2019-Nov-18 02:06 047 10 gusting 23 5.5
2019-Nov-18 02:00 047 10 gusting 24 5.5
2019-Nov-18 01:54 044 10 gusting 25 5.5
2019-Nov-18 01:48 053 10 gusting 23 5.4
2019-Nov-18 01:42 044 9 gusting 26 5.4
2019-Nov-18 01:36 044 9 gusting 23 5.5
2019-Nov-18 01:30 042 9 gusting 50 5.4
2019-Nov-18 01:24 041 10 gusting 25 5.5
2019-Nov-18 01:18 045 8 gusting 23 5.4
2019-Nov-18 01:12 044 9 gusting 26 5.4
2019-Nov-18 01:06 046 9 gusting 23 5.4
2019-Nov-18 01:00 041 9 gusting 23 5.4
2019-Nov-18 00:54 044 9 gusting 23 5.5
2019-Nov-18 00:48 047 10 gusting 24 5.4
2019-Nov-18 00:42 045 9 gusting 20 5.5
2019-Nov-18 00:36 044 10 gusting 23 5.5
2019-Nov-18 00:30 045 9 gusting 24 5.5
2019-Nov-18 00:24 042 10 gusting 22 5.5
2019-Nov-18 00:18 043 10 gusting 22 5.6
2019-Nov-18 00:12 045 10 gusting 22 5.6
2019-Nov-18 00:06 042 10 gusting 22 5.7
2019-Nov-18 00:00 046 9 gusting 20 5.7
2019-Nov-17 23:54 043 9 gusting 26 5.8
2019-Nov-17 23:48 043 9 gusting 19 5.8
2019-Nov-17 23:42 038 12 gusting 23 5.9
2019-Nov-17 23:36 046 10 gusting 23 5.9
2019-Nov-17 23:30 045 9 gusting 22 5.9
2019-Nov-17 23:24 043 9 gusting 20 5.9
2019-Nov-17 23:18 044 8 gusting 21 5.9
2019-Nov-17 23:12 046 9 gusting 19 6.0
2019-Nov-17 23:06 043 8 gusting 18 6.0
2019-Nov-17 23:00 041 8 gusting 19 6.0
2019-Nov-17 22:54 042 9 gusting 21 6.0
2019-Nov-17 22:48 044 9 gusting 21 6.0
2019-Nov-17 22:42 041 11 gusting 24 6.0
2019-Nov-17 22:36 040 9 gusting 21 6.2
2019-Nov-17 22:30 042 9 gusting 20 6.3
2019-Nov-17 22:24 044 8 gusting 22 6.3
2019-Nov-17 22:18 043 9 gusting 21 6.3
2019-Nov-17 22:12 046 11 gusting 26 6.2
2019-Nov-17 22:06 046 10 gusting 24 6.2
2019-Nov-17 22:00 044 10 gusting 26 6.4
2019-Nov-17 21:54 046 10 gusting 24 6.4
2019-Nov-17 21:48 046 8 gusting 18 6.3
2019-Nov-17 21:42 045 9 gusting 22 6.3
2019-Nov-17 21:36 041 8 gusting 20 6.3
2019-Nov-17 21:30 042 9 gusting 22 6.3
2019-Nov-17 21:24 043 9 gusting 20 6.3
2019-Nov-17 21:18 042 8 gusting 20 6.3
2019-Nov-17 21:12 042 9 gusting 19 6.4
2019-Nov-17 21:06 043 9 gusting 20 6.2
2019-Nov-17 21:00 042 9 gusting 20 6.2
2019-Nov-17 20:54 042 9 gusting 20 6.3
2019-Nov-17 20:48 041 9 gusting 21 6.2
2019-Nov-17 20:42 042 8 gusting 20 6.2
2019-Nov-17 20:36 044 8 gusting 20 6.2
2019-Nov-17 20:30 044 8 gusting 19 6.3
2019-Nov-17 20:24 039 8 gusting 20 6.3
2019-Nov-17 20:18 042 9 gusting 20 6.3
2019-Nov-17 20:12 041 9 gusting 23 6.3
2019-Nov-17 20:06 046 10 gusting 22 6.4
2019-Nov-17 20:00 047 9 gusting 25 6.3
2019-Nov-17 19:54 043 10 gusting 22 6.4
2019-Nov-17 19:48 045 9 gusting 21 6.7
2019-Nov-17 19:42 047 9 gusting 23 6.7
2019-Nov-17 19:36 042 10 gusting 22 6.6
2019-Nov-17 19:30 043 10 gusting 24 6.6
2019-Nov-17 19:24 043 10 gusting 20 6.6
2019-Nov-17 19:18 044 9 gusting 23 6.5
2019-Nov-17 19:12 040 10 gusting 27 6.6
2019-Nov-17 19:06 044 9 gusting 20 6.7
2019-Nov-17 19:00 045 9 gusting 23 6.9
2019-Nov-17 18:54 046 10 gusting 25 6.8
2019-Nov-17 18:48 049 11 gusting 25 6.8
2019-Nov-17 18:42 048 10 gusting 22 6.8
2019-Nov-17 18:36 046 10 gusting 27 6.8
2019-Nov-17 18:30 044 10 gusting 22 6.7
2019-Nov-17 18:24 046 11 gusting 27 6.7
2019-Nov-17 18:18 046 11 gusting 26 6.5
2019-Nov-17 18:12 050 12 gusting 24 6.5
2019-Nov-17 18:06 048 12 gusting 29 6.5
2019-Nov-17 18:00 047 11 gusting 28 6.6
2019-Nov-17 17:54 050 13 gusting 29 6.5
2019-Nov-17 17:48 048 12 gusting 27 6.6
2019-Nov-17 17:42 048 11 gusting 27 6.6
2019-Nov-17 17:36 048 11 gusting 25 6.7
2019-Nov-17 17:30 048 11 gusting 24 6.6
2019-Nov-17 17:24 047 12 gusting 26 6.5
2019-Nov-17 17:18 045 10 gusting 27 6.5
2019-Nov-17 17:12 045 10 gusting 24 6.6
2019-Nov-17 17:06 045 9 gusting 22 6.5
2019-Nov-17 17:00 044 10 gusting 24 6.4
2019-Nov-17 16:54 048 11 gusting 26 6.4
2019-Nov-17 16:48 050 10 gusting 24 6.4
2019-Nov-17 16:42 047 10 gusting 24 6.5
2019-Nov-17 16:36 046 11 gusting 24 6.5
2019-Nov-17 16:30 051 12 gusting 26 6.5
2019-Nov-17 16:24 038 10 gusting 24 6.5
2019-Nov-17 16:18 043 9 gusting 21 6.4
2019-Nov-17 16:12 042 9 gusting 23 6.4
2019-Nov-17 16:06 054 11 gusting 23 6.2
2019-Nov-17 16:00 041 11 gusting 23 6.2
2019-Nov-17 15:54 039 8 gusting 21 6.0
2019-Nov-17 15:48 039 10 gusting 24 5.8
2019-Nov-17 15:42 048 10 gusting 22 5.7
2019-Nov-17 15:36 048 11 gusting 26 5.5
2019-Nov-17 15:30 047 11 gusting 25 5.5
2019-Nov-17 15:24 050 13 gusting 26 5.5
2019-Nov-17 15:18 049 12 gusting 27 5.4
2019-Nov-17 15:12 050 14 gusting 29 5.3
2019-Nov-17 15:06 049 13 gusting 26 5.3
2019-Nov-17 15:00 051 14 gusting 25 5.2